User: anonymous   Login
Location: Chacón
(10.5789°N, 66.9317°W)
Time: 05:43:32
(UTC+00:00)
Language:

H-2A R/B - Orbit

View from above orbital plane
View from above orbital plane
View from above satellite
View from above satellite

Ground track
Ground track

The orbit data is extracted from the following two-line orbital elements,

1 27601U 02056E   24201.90721108  .00000656  00000-0  24790-3 0  9998
2 27601  98.2320 177.3579 0071926 143.0270 280.5851 14.32867851128479
Epoch (UTC): 19 July 2024 21:46:23
Eccentricity: 0.0071926
inclination: 98.2320°
perigee height: 730 km
apogee height: 833 km
right ascension of ascending node: 177.3579°
argument of perigee: 143.0270°
revolutions per day: 14.32867851
mean anomaly at epoch: 280.5851°
orbit number at epoch: 12847

The dashed part of the orbit path shows where the satellite is in the earth's shadow,  

DLR